Newport News, VA

5:36 AM EDT on April 22, 2018 (GMT -0400)
Newport News-Williamsburg International

Weather History for KPHF - December, 2013

Change the Weather History Date:

Thursday, December 5, 2013

  Actual Average Record
Temperature  
Mean Temperature 60 °F -  
Max Temperature 69 °F 57 °F 77 °F (1998)
Min Temperature 51 °F 38 °F 21 °F (2000)
Degree Days  
Heating Degree Days 5    
Growing Degree Days 10 (Base 50)    
Moisture  
Dew Point 56 °F    
Average Humidity 85    
Maximum Humidity 94    
Minimum Humidity 75    
Precipitation  
Precipitation 0.04 in - - ()
Sea Level Pressure  
Sea Level Pressure 30.09 in    
Wind  
Wind Speed 3 mph (SSW)    
Max Wind Speed 14 mph    
Max Gust Speed 21 mph    
Visibility 4 miles    
Events Fog , Rain    
Averages and records for this station are not official NWS values.
T = Trace of Precipitation, MM = Missing Value Source: NWS Daily Summary

Daily Weather History Graph

Daily Weather History Graph

Search for Another Location

Airport or City:

Astronomy

Dec. 05, 2013 Rise Set
Actual Time 7:04 AM EST 4:48 PM EST
Civil Twilight 6:35 AM EST 5:17 PM EST
Nautical Twilight 6:03 AM EST 5:49 PM EST
Astronomical Twilight 5:32 AM EST 6:21 PM EST
Moon 9:24 AM EST (12/5) 8:04 PM EST (12/5)
Length of Visible Light 10h 41m
Length of Day
9h 43m
Waxing Crescent, 10% of the Moon is Illuminated
Dec 5
Waxing Crescent
Dec 9
First Quarter
Dec 17
Full
Dec 25
Last Quarter
Jan 1
New

Hourly Weather History & Observations

Time (EST) Temp. Dew Point Humidity Pressure Visibility Wind Dir Wind Speed Gust Speed Precip Events Conditions
12:35 AM 55.4 °F 51.8 °F 88% 30.09 in 1.5 mi Calm Calm - N/A   Overcast
12:44 AM 55.4 °F 51.8 °F 88% 30.09 in 0.5 mi Calm Calm - N/A Fog Fog
12:52 AM 55.4 °F 51.8 °F 88% 30.08 in 0.2 mi Calm Calm - N/A Fog Fog
12:54 AM 54.0 °F 51.1 °F 90% 30.08 in 0.2 mi Calm Calm - N/A Fog Fog
1:27 AM 51.8 °F 48.2 °F 88% 30.09 in 0.2 mi Calm Calm - N/A Fog Fog
1:54 AM 52.0 °F 48.9 °F 89% 30.09 in 0.2 mi Calm Calm - N/A Fog Fog
2:07 AM 51.8 °F 48.2 °F 88% 30.09 in 0.8 mi Calm Calm - N/A   Overcast
2:17 AM 53.6 °F 50.0 °F 88% 30.09 in 2.5 mi Calm Calm - N/A   Overcast
2:24 AM 53.6 °F 50.0 °F 88% 30.09 in 5.0 mi Calm Calm - N/A   Overcast
2:47 AM 53.6 °F 51.8 °F 94% 30.09 in 2.0 mi Calm Calm - N/A   Overcast
2:54 AM 55.0 °F 51.1 °F 86% 30.09 in 3.0 mi Calm Calm - N/A   Overcast
4:18 AM 57.2 °F 53.6 °F 88% 30.09 in 1.8 mi Calm Calm - N/A   Overcast
4:29 AM 57.2 °F 53.6 °F 88% 30.09 in 0.5 mi Calm Calm - N/A Fog Fog
4:54 AM 57.0 °F 53.1 °F 87% 30.09 in 0.2 mi Calm Calm - N/A Fog Fog
5:02 AM 57.2 °F 53.6 °F 88% 30.10 in 0.5 mi Calm Calm - N/A Fog Fog
5:10 AM 55.4 °F 51.8 °F 88% 30.10 in 0.2 mi Calm Calm - N/A Fog Fog
5:19 AM 55.4 °F 53.6 °F 94% 30.10 in 0.5 mi Calm Calm - N/A Fog Fog
5:30 AM 57.2 °F 53.6 °F 88% 30.09 in 1.0 mi Calm Calm - N/A   Overcast
5:54 AM 57.9 °F 55.0 °F 90% 30.10 in 0.5 mi SW 3.5 mph - N/A Fog Fog
6:54 AM 57.9 °F 55.0 °F 90% 30.11 in 0.5 mi SSW 8.1 mph - N/A Fog Fog
7:54 AM 57.9 °F 55.0 °F 90% 30.13 in 0.5 mi SW 10.4 mph - N/A Fog Fog
8:17 AM 59.0 °F 55.4 °F 88% 30.14 in 0.2 mi SW 8.1 mph - N/A Fog Fog
8:29 AM 59.0 °F 55.4 °F 88% 30.14 in 0.5 mi SW 6.9 mph - N/A Fog Fog
8:54 AM 60.1 °F 57.0 °F 90% 30.14 in 1.0 mi SW 3.5 mph - N/A   Overcast
9:17 AM 60.8 °F 57.2 °F 88% 30.14 in 2.0 mi SW 6.9 mph - N/A   Overcast
9:54 AM 62.1 °F 57.9 °F 86% 30.13 in 2.5 mi SSW 6.9 mph - N/A   Overcast
10:10 AM 62.6 °F 59.0 °F 88% 30.13 in 3.0 mi SSW 9.2 mph - N/A   Overcast
10:34 AM 64.4 °F 59.0 °F 83% 30.12 in 5.0 mi SSW 9.2 mph - N/A   Haze
10:54 AM 64.9 °F 59.0 °F 81% 30.12 in 5.0 mi SSW 10.4 mph - N/A   Haze
11:23 AM 66.2 °F 60.8 °F 83% 30.10 in 7.0 mi SSW 10.4 mph - N/A   Scattered Clouds
11:54 AM 66.9 °F 60.1 °F 79% 30.09 in 8.0 mi SW 9.2 mph - N/A   Overcast
12:46 PM 66.2 °F 60.8 °F 83% 30.08 in 4.0 mi SSW 10.4 mph - 0.00 in Rain Light Rain
12:54 PM 66.0 °F 60.1 °F 81% 30.07 in 5.0 mi SW 10.4 mph - 0.00 in Rain Light Rain
1:09 PM 66.2 °F 60.8 °F 83% 30.06 in 7.0 mi SSW 8.1 mph - 0.00 in   Overcast
1:54 PM 66.9 °F 60.1 °F 79% 30.05 in 9.0 mi SW 9.2 mph - 0.00 in   Overcast
2:54 PM 69.1 °F 61.0 °F 75% 30.04 in 10.0 mi SSW 13.8 mph 20.7 mph 0.00 in   Mostly Cloudy
3:54 PM 69.1 °F 61.0 °F 75% 30.04 in 10.0 mi SW 10.4 mph - N/A   Mostly Cloudy
4:54 PM 66.9 °F 60.1 °F 79% 30.06 in 10.0 mi SSW 8.1 mph - N/A   Overcast
5:54 PM 66.9 °F 61.0 °F 81% 30.06 in 8.0 mi South 6.9 mph - 0.01 in Rain Light Rain
6:54 PM 66.9 °F 61.0 °F 81% 30.07 in 9.0 mi SSW 10.4 mph - 0.03 in Rain Light Rain
7:54 PM 66.0 °F 60.1 °F 81% 30.07 in 10.0 mi SSW 8.1 mph - 0.00 in   Mostly Cloudy
8:54 PM 66.9 °F 60.1 °F 79% 30.06 in 10.0 mi South 9.2 mph - N/A   Mostly Cloudy
9:54 PM 66.9 °F 61.0 °F 81% 30.04 in 10.0 mi South 9.2 mph - 0.00 in   Overcast
10:54 PM 68.0 °F 61.0 °F 78% 30.04 in 10.0 mi SSW 12.7 mph - N/A   Mostly Cloudy
11:54 PM 66.9 °F 60.1 °F 79% 30.02 in 10.0 mi SSW 11.5 mph - N/A   Clear